AO-07 1 07530U 74089B 22223.57342788 -.00000045 00000-0 32619-5 0 9994 2 07530 101.9084 203.6254 0011924 297.8222 176.0448 12.53656265184375 UO-11 1 14781U 84021B 22223.75210631 .00000580 00000-0 76188-4 0 9999 2 14781 97.6210 208.6776 0009480 132.7956 227.4058 14.83748486 69240 LO-19 1 20442U 90005G 22223.46823046 .00000051 00000-0 35291-4 0 9990 2 20442 98.7980 189.1820 0012019 12.9594 347.1896 14.33076228700985 HUBBLE 1 20580U 90037B 22223.26877476 .00001676 00000-0 87719-4 0 9998 2 20580 28.4690 165.5371 0002383 264.5178 216.5839 15.10744330574517 MET-2/21 1 22782U 93055A 22223.82143209 -.00000001 00000-0 -14462-4 0 9997 2 22782 82.5514 330.2937 0022165 189.0087 285.4413 13.83855721461937 AO-27 1 22825U 93061C 22223.64366721 .00000042 00000-0 34326-4 0 9992 2 22825 98.8843 255.8395 0007420 248.0919 111.9474 14.30184923506311 IO-26 1 22826U 93061D 22223.65351788 .00000054 00000-0 38449-4 0 9994 2 22826 98.8787 255.7254 0008073 233.1282 126.9160 14.30532367506558 FO-29 1 24278U 96046B 22223.59511199 .00000016 00000-0 49631-4 0 9993 2 24278 98.5154 239.6998 0351045 140.0969 222.6550 13.53118534283313 NOAA-15 1 25338U 98030A 22223.77511414 .00000117 00000-0 66954-4 0 9995 2 25338 98.6416 252.5796 0011294 132.4342 227.7795 14.26159760261154 GO-32 1 25397U 98043D 22223.80629691 .00000014 00000-0 26001-4 0 9990 2 25397 98.8206 174.4303 0000867 7.7507 352.3684 14.23765074251525 ISS 1 25544U 98067A 22223.85858796 .00005080 00000-0 96458-4 0 9996 2 25544 51.6435 60.7994 0005755 110.8341 79.0000 15.50139625353814 NO-44 1 26931U 01043C 22223.60773788 .00000033 00000-0 44161-4 0 9992 2 26931 67.0504 276.0348 0006889 257.8087 102.2243 14.30722873 89450 SO-50 1 27607U 02058C 22223.19613763 .00000395 00000-0 74666-4 0 9994 2 27607 64.5548 134.3730 0080639 283.9307 75.2837 14.76195728 56660 CO-55 1 27844U 03031E 22223.57318861 .00000158 00000-0 90535-4 0 9992 2 27844 98.6795 230.4281 0008865 307.3716 52.6654 14.22477915991701 CO-57 1 27848U 03031J 22223.55339946 .00000132 00000-0 79656-4 0 9994 2 27848 98.6839 230.9167 0008965 322.9581 37.0977 14.22031690991549 RS-22 1 27939U 03042A 22223.63083684 .00000569 00000-0 10928-3 0 9991 2 27939 98.1987 4.3584 0013577 38.9572 321.2609 14.67420437 9139 NOAA-18 1 28654U 05018A 22223.80238281 .00000106 00000-0 80946-4 0 9990 2 28654 98.9464 294.1878 0014558 171.1719 188.9711 14.12762946887882 CO-58 1 28895U 05043F 22223.31848867 .00000550 00000-0 11286-3 0 9991 2 28895 98.1133 353.8737 0015867 332.7384 27.2984 14.64419901895443 Falconsat-3 1 30776U 07006E 22223.46651735 .00030757 00000-0 41182-3 0 9995 2 30776 35.4292 258.9186 0003753 208.4287 151.6241 15.56989993858159 CO-65 1 32785U 08021C 22223.37582335 .00001342 00000-0 14549-3 0 9999 2 32785 97.6615 192.5011 0014026 56.1412 304.1138 14.89742952774663 AAUSAT2 1 32788U 08021F 22223.75784453 .00003080 00000-0 26654-3 0 9990 2 32788 97.5354 207.1359 0009440 299.9906 60.0379 14.97844841776815 DO-64 1 32789U 08021G 22223.65737800 .00008111 00000-0 43879-3 0 9992 2 32789 97.3367 247.9931 0012047 127.3139 232.9193 15.14846753780380 CO-66 1 32791U 08021J 22223.81006767 .00002486 00000-0 24476-3 0 9995 2 32791 97.6149 198.3567 0012981 13.7812 346.3760 14.92900474775538 RS-30 1 32953U 08025A 22223.83121888 .00000024 00000-0 10000-3 0 9997 2 32953 82.5045 149.5077 0019637 136.0934 224.1715 12.43112512645215 PRISM 1 33493U 09002B 22223.64521146 .00003676 00000-0 29851-3 0 9993 2 33493 98.2280 213.3584 0017058 5.8403 354.3015 15.00204923737262 NOAA-19 1 33591U 09005A 22223.73911496 .00000130 00000-0 95045-4 0 9997 2 33591 99.1448 259.0281 0014450 36.6657 323.5500 14.12597187696253 SRMSAT 1 37841U 11058D 22223.51781058 .00000340 00000-0 41459-4 0 9998 2 37841 19.9719 282.0773 0011664 228.7904 265.0852 14.10764841559249 HRBE 1 37855U 11061F 22223.66525834 .00006556 00000-0 28615-3 0 9994 2 37855 101.7159 12.0136 0151385 256.7702 101.6590 15.13068694590053 RS-40 1 38735U 12041C 22223.48825432 .00000008 00000-0 -13031-4 0 9992 2 38735 82.4732 231.1739 0015954 250.3786 109.5580 12.42586808455359 ZACUBE-1 1 39417U 13066B 22223.44587019 .00001020 00000-0 13012-3 0 9992 2 39417 97.6405 192.4777 0056417 223.2415 136.4363 14.82498459471277 Delfi-N3xt 1 39428U 13066N 22223.75789711 .00001758 00000-0 27500-3 0 9996 2 39428 97.8142 155.7453 0118556 100.7862 260.6715 14.69343329466837 GOMX-1 1 39430U 13066Q 22223.68345959 .00000574 00000-0 11115-3 0 9993 2 39430 97.8047 127.7228 0147780 230.4735 128.3331 14.60296883464356 LO-74 1 39440U 13066AA 22223.80087398 .00001299 00000-0 18204-3 0 9999 2 39440 97.7294 179.0450 0077423 312.8531 46.6192 14.77163336469651 AO-73 1 39444U 13066AE 22223.48937106 .00001230 00000-0 15160-3 0 9991 2 39444 97.6284 194.9326 0055489 210.6581 149.1388 14.83608689469680 SPROUT 1 39770U 14029E 22223.67477078 .00004620 00000-0 46784-3 0 9993 2 39770 97.9457 340.9873 0007436 265.5025 94.5568 14.91425607445894 DTUSAT-2 1 40030U 14033W 22223.77882289 .00001462 00000-0 15699-3 0 9996 2 40030 97.9372 156.7767 0010387 227.1664 132.8681 14.90132936442391 EO-80 1 40032U 14033Y 22223.81925144 .00001472 00000-0 15813-3 0 9990 2 40032 97.9378 156.8315 0010296 228.1671 131.8668 14.90105377442389 HODOYOSHI-1 1 40299U 14070B 22223.78289659 .00004128 00000-0 15651-3 0 9997 2 40299 97.2409 290.2881 0010539 305.7180 190.6960 15.27369329431500 FIREBIRD FU3 1 40377U 15003B 22223.61185298 .00011507 00000-0 33362-3 0 9995 2 40377 99.0927 100.8747 0097221 197.3564 162.4342 15.31118329416863 FIREBIRD FU4 1 40378U 15003C 22223.56848980 .00010667 00000-0 30866-3 0 9996 2 40378 99.0932 101.0446 0097120 197.1278 162.6674 15.31217798416856 GRIFEX 1 40379U 15003D 22223.68215914 .00006680 00000-0 23410-3 0 9992 2 40379 99.1054 86.4818 0112599 241.5657 117.4192 15.24053153416044 XW-2A 1 40903U 15049E 22223.76653677 .00022035 00000-0 32323-3 0 9991 2 40903 97.1751 282.4449 0007168 272.0302 225.9242 15.55516648387852 XW-2C 1 40906U 15049H 22223.78788609 .00004306 00000-0 20542-3 0 9991 2 40906 97.4941 226.7765 0014340 159.2112 286.8715 15.19528202381322 XW-2D 1 40907U 15049J 22223.79338341 .00004979 00000-0 23220-3 0 9999 2 40907 97.4926 226.8126 0013765 154.6767 330.6977 15.20244629381376 LILACSAT-2 1 40908U 15049K 22223.75500618 .00002409 00000-0 12843-3 0 9999 2 40908 97.5181 223.8008 0015246 178.8221 356.2260 15.16049361380869 XW-2E 1 40909U 15049L 22223.82708512 .00008114 00000-0 33366-3 0 9993 2 40909 97.4657 231.5006 0013624 135.3237 344.2343 15.24339160381840 XW-2F 1 40910U 15049M 22223.76805832 .00008021 00000-0 33508-3 0 9996 2 40910 97.4739 230.5897 0014324 135.2992 311.0402 15.23803073381605 XW-2B 1 40911U 15049N 22223.82257150 .00004834 00000-0 22634-3 0 9994 2 40911 97.4921 227.4264 0013522 155.6995 329.1495 15.20126454381262 DCBB 1 40912U 15049P 22223.79469015 .00009900 00000-0 37484-3 0 9994 2 40912 97.4377 234.9633 0014514 105.2158 13.2689 15.27027908382195 TW-1A 1 40928U 15051D 22223.78099193 .00048638 00000-0 51537-3 0 9995 2 40928 97.0361 246.0982 0008620 159.3553 305.6772 15.63939477386875 IO-86 1 40931U 15052B 22223.62524934 .00000806 00000-0 22972-4 0 9996 2 40931 5.9965 135.4741 0012565 233.1003 126.8851 14.76840697371519 AO-85 1 40967U 15058D 22222.46450860 .00001296 00000-0 15255-3 0 4442 2 40967 64.7744 267.6400 0188329 183.1269 176.8779 14.77620318 68644 ATHENOXAT-1 1 41168U 15077C 22223.81920604 .00012778 00000-0 50722-3 0 9995 2 41168 14.9824 39.6758 0008654 307.6697 171.1920 15.22119443368751 ChubuSat-2 1 41338U 16012B 22223.77696428 .00001406 00000-0 99379-4 0 9991 2 41338 31.0039 31.5917 0013425 341.3995 18.6149 15.01533715355803 ChubuSat-3 1 41339U 16012C 22223.76715229 .00001337 00000-0 94026-4 0 9999 2 41339 31.0125 28.5722 0013489 349.6036 10.4349 15.01599454355801 Horyu-4 1 41340U 16012D 22223.74248941 .00002401 00000-0 16507-3 0 9991 2 41340 31.0056 5.9544 0013267 30.4095 329.7309 15.03581277356057 e-st@r-II 1 41459U 16025D 22223.74140011 .00012348 00000-0 51872-3 0 9990 2 41459 98.1903 33.0459 0143250 81.8257 279.9190 15.14648661345860 AAUSAT4 1 41460U 16025E 22223.43210430 .00018545 00000-0 67798-3 0 9990 2 41460 98.1835 39.4383 0122228 57.2283 304.0792 15.21285280346298 LO-87 1 41557U 16033B 22223.92081559 .00012097 00000-0 34883-3 0 9993 2 41557 97.3898 321.7596 0011115 171.6071 324.7593 15.35799680345898 NuSat2 1 41558U 16033C 22223.93247649 .00012156 00000-0 33010-3 0 9996 2 41558 97.4106 327.7831 0010699 160.4729 264.7697 15.37676884346174 Lapan A3 1 41603U 16040E 22223.71513188 .00001040 00000-0 50098-4 0 9991 2 41603 97.2038 258.3299 0012245 333.7692 158.8809 15.20797412340431 Pratham 1 41783U 16059A 22223.67511745 .00000291 00000-0 64791-4 0 9994 2 41783 97.9101 263.0083 0033340 2.0558 358.0776 14.63399109313702 TY-1 1 41844U 16066D 22223.78409201 .00011702 00000-0 38499-3 0 9999 2 41844 97.3890 235.5785 0014679 92.6175 10.7368 15.31568192320079 CAS-2T 1 41847U 16066G 22223.77546543 .00000573 00000-0 94977-4 0 9990 2 41847 98.5477 288.3755 0364246 44.5497 318.4366 14.38684760302308 EO-88 1 42017U 17008BX 22223.70018649 .00011911 00000-0 34047-3 0 9990 2 42017 97.2660 289.0588 0005889 61.6348 298.5489 15.36118883305551 CAS-4B 1 42759U 17034B 22223.81074333 .00003010 00000-0 18378-3 0 9996 2 42759 43.0180 27.4960 0010759 279.9353 219.6119 15.12223798284736 CAS-4A 1 42761U 17034D 22223.63688628 .00003152 00000-0 19136-3 0 9997 2 42761 43.0191 27.1989 0010819 280.5561 173.7891 15.12310109284713 NIUSat 1 42766U 17036B 22223.71192117 .00006564 00000-0 24864-3 0 9990 2 42766 97.1985 259.5766 0015027 127.1758 233.0856 15.27125078285237 Aalto 1 1 42775U 17036L 22223.64817493 .00005358 00000-0 20913-3 0 9994 2 42775 97.1940 259.3409 0013983 126.6449 233.6078 15.26226367285199 URSA MAIOR 1 42776U 17036M 22223.41116002 .00005441 00000-0 20843-3 0 9993 2 42776 97.1956 259.8978 0013627 126.1956 234.0545 15.26849047285196 Max Valier Sat 1 42778U 17036P 22223.68274041 .00005659 00000-0 21106-3 0 9996 2 42778 97.2014 262.9014 0012406 125.3139 234.9263 15.27731819285338 Pegasus 1 42784U 17036V 22223.66335939 .00008457 00000-0 29438-3 0 9990 2 42784 97.1954 263.8315 0011607 125.8945 234.3375 15.29860591285456 NUDATSat 1 42787U 17036Y 22223.85629051 .00018677 00000-0 54363-3 0 9995 2 42787 97.1990 268.5537 0010373 115.9453 244.2861 15.35409098285593 SUCHAI 1 1 42788U 17036Z 22223.65690826 .00010292 00000-0 33636-3 0 9997 2 42788 97.1961 265.6141 0010978 121.0005 239.2316 15.31854406285630 SKCUBE 1 42789U 17036AA 22223.35583645 .00008813 00000-0 29635-3 0 9995 2 42789 97.1958 264.7226 0011043 122.9066 237.3240 15.30978777285476 VZLUSAT 1 1 42790U 17036AB 22223.34807524 .00014922 00000-0 43788-3 0 9994 2 42790 97.1985 268.0144 0009885 115.3258 244.9010 15.35206032285667 VENTA 1 1 42791U 17036AC 22222.36498435 .00008424 00000-0 28975-3 0 9994 2 42791 97.1965 263.6009 0010726 126.5822 233.6408 15.30259857285309 Robusta 1B 1 42792U 17036AD 22223.68385062 .00009678 00000-0 31916-3 0 9993 2 42792 97.1955 265.6459 0010631 121.6894 238.5386 15.31583477285577 D-SAT 1 42794U 17036AF 22223.64797578 .00000925 00000-0 82879-4 0 9991 2 42794 97.4526 226.1551 0120898 260.2518 98.5031 14.92861666279749 TechnoSat 1 42829U 17042E 22223.54998793 .00000930 00000-0 96789-4 0 9999 2 42829 97.4160 74.4620 0013899 176.6805 183.4510 14.91969890276306 AO-91 1 43017U 17073E 22223.41532775 .00003859 00000-0 29079-3 0 9993 2 43017 97.6683 115.3519 0247837 8.2254 352.2908 14.81756517255256 PICSAT 1 43132U 18004X 22223.16199602 .00010609 00000-0 33888-3 0 9990 2 43132 97.3705 299.2793 0008280 154.3786 205.7868 15.32613772254788 AO-92 1 43137U 18004AC 22223.75832468 .00007420 00000-0 25587-3 0 9998 2 43137 97.3669 298.4425 0008305 155.4892 204.6746 15.30254883254799 TianYi 2 1 43155U 18008A 22223.81884506 .00005696 00000-0 29951-3 0 9991 2 43155 97.3491 280.4483 0014817 317.1454 107.2462 15.15955855251669 Zhou Enlai 1 43156U 18008B 22223.78902042 .00005375 00000-0 28461-3 0 9993 2 43156 97.3537 280.3122 0011910 318.7111 179.7612 15.15766560251583 TianYi 6 1 43158U 18008D 22223.86279477 .00004941 00000-0 27041-3 0 9994 2 43158 97.3501 278.2466 0011934 320.5776 94.4238 15.14633633251497 S-Net D 1 43186U 18014G 22223.53655647 .00001318 00000-0 11620-3 0 9994 2 43186 97.6519 128.2168 0012006 111.7072 248.5430 14.98058062247166 S-Net B 1 43187U 18014H 22223.53676094 .00001327 00000-0 11698-3 0 9999 2 43187 97.6516 128.1659 0012020 111.6587 248.5917 14.98056047247165 S-Net A 1 43188U 18014J 22223.73744370 .00001348 00000-0 11880-3 0 9991 2 43188 97.6520 128.4292 0012045 111.1406 249.1105 14.98056299247197 S-Net C 1 43189U 18014K 22223.73824406 .00001364 00000-0 12014-3 0 9999 2 43189 97.6515 128.3513 0012076 111.0234 249.2281 14.98053543245743 FMN 1 1 43192U 18015A 22223.68235039 .00028343 00000-0 69073-3 0 9999 2 43192 97.5399 10.4015 0010689 188.8301 298.0913 15.40814667251942 Shaonian Xing 1 43199U 18015H 22223.65990758 .00016197 00000-0 46745-3 0 9994 2 43199 97.5192 5.0363 0012546 198.9771 285.1518 15.35690684251913 SurfSat 1 43614U 18070B 22223.78339291 .00034795 00000-0 44529-3 0 9992 2 43614 93.0265 122.3052 0012311 141.3827 218.8321 15.59004717219673 CP-7 DAVE 1 43615U 18070C 22223.71473239 .00029209 00000-0 39826-3 0 9995 2 43615 93.0251 122.0709 0012489 145.2447 214.9636 15.57328706219628 ELFIN-B 1 43616U 18070D 22223.29549022 .00130343 00000-0 72142-3 0 9993 2 43616 93.0141 123.5924 0012338 128.1220 232.1170 15.79125500219978 ELFIN-A 1 43617U 18070E 22223.68629328 .00184447 00000-0 79152-3 0 9997 2 43617 93.0201 125.2876 0012167 123.9038 236.3400 15.84509021220100 CubeBel-1 1 43666U 18083E 22223.69956618 .00007872 00000-0 32672-3 0 9993 2 43666 97.4195 251.7815 0014376 134.1339 359.2497 15.24025261209891 Changshagaoxin 1 43669U 18083H 22223.80018552 .00007427 00000-0 32375-3 0 9991 2 43669 97.4131 247.6857 0011210 131.5945 342.6639 15.22415874209729 Ten-Koh 1 43677U 18084G 22223.50423515 .00001057 00000-0 11200-3 0 9994 2 43677 97.9711 354.0792 0017185 90.2635 270.0552 14.91213980205882 PO-101 1 43678U 18084H 22223.63651083 .00000337 00000-0 38754-4 0 9996 2 43678 97.9777 357.5727 0011202 100.7191 259.5290 14.92245413206080 IRVINE 01 1 43693U 18088D 22223.58440916 .00026930 00000-0 64673-3 0 9997 2 43693 85.0262 273.3690 0009139 250.0199 110.0069 15.41169086208703 QO-100 1 43700U 18090A 22223.32770815 .00000128 00000-0 00000-0 0 9997 2 43700 0.0205 112.7498 0002063 64.7551 286.0359 1.00271340 13582 Reaktor Hello World 1 43743U 18096AA 22223.76200149 .00009633 00000-0 28459-3 0 9997 2 43743 97.3516 303.4333 0013860 215.0061 145.0273 15.35064660206440 MinXSS-2 1 43758U 18099A 22223.70876814 .00001909 00000-0 16781-3 0 9991 2 43758 97.6208 290.2940 0016026 81.0306 279.2730 14.97619780201375 AO-95 1 43770U 18099N 22223.14979809 .00001662 00000-0 15036-3 0 9999 2 43770 97.6181 288.0777 0015774 92.1646 268.1382 14.96654136201194 RANGE-B 1 43772U 18099Q 22223.12028884 .00002441 00000-0 21484-3 0 9997 2 43772 97.6284 289.8544 0014864 81.2154 279.0750 14.97333126201210 RANGE-A 1 43773U 18099R 22223.42216457 .00000823 00000-0 77896-4 0 9997 2 43773 97.6101 287.1363 0014721 80.0600 280.2282 14.96188732201218 MOVE-II 1 43780U 18099Y 22223.12678563 .00003468 00000-0 29740-3 0 9994 2 43780 97.6213 289.3146 0014490 89.9273 270.3610 14.98071849201240 SNUSat 2 1 43782U 18099AA 22223.12420218 .00001959 00000-0 17577-3 0 9996 2 43782 97.6177 288.5292 0013857 80.4849 279.7938 14.96799300201215 SnugLite 1 43784U 18099AC 22223.75524882 .00001350 00000-0 12187-3 0 9996 2 43784 97.6144 288.7778 0016178 83.8267 276.4797 14.97039018201336 ITASat 1 1 43786U 18099AE 22223.73996838 .00002069 00000-0 18534-3 0 9990 2 43786 97.6207 289.6003 0016573 84.3605 275.9506 14.96772366201320 EAGLET 1 1 43790U 18099AJ 22223.42881582 .00000667 00000-0 63000-4 0 9991 2 43790 97.6198 289.8370 0014532 87.4441 272.8445 14.96909553201012 ESEO 1 43792U 18099AL 22223.71987294 .00000940 00000-0 88049-4 0 9996 2 43792 97.6145 289.2563 0014634 85.6084 274.6809 14.96276775201095 CSIM 1 43793U 18099AM 22223.40927086 .00003742 00000-0 31491-3 0 9997 2 43793 97.6239 290.5406 0014763 81.5275 278.7620 14.98763562201117 Astrocast 0.1 1 43798U 18099AS 22223.78286021 .00001847 00000-0 16145-3 0 9993 2 43798 97.6201 290.7278 0012799 66.6148 293.6419 14.97909295201396 JO-97 1 43803U 18099AX 22223.13713961 .00002812 00000-0 24666-3 0 9997 2 43803 97.6172 288.7840 0016578 85.6547 274.6569 14.97314272201250 Suomi 100 1 43804U 18099AY 22223.76017538 .00001124 00000-0 10191-3 0 9997 2 43804 97.6164 289.3031 0016145 82.8021 277.5036 14.97205804201359 Al Farabi 2 1 43805U 18099AZ 22223.72536568 .00003286 00000-0 28374-3 0 9996 2 43805 97.6175 289.8160 0015956 84.0993 276.2051 14.97832083201371 CHOMPTT 1 43855U 18104G 22223.45566174 .00006247 00000-0 22445-3 0 9997 2 43855 85.0357 14.4519 0016310 40.7243 319.5218 15.28295912203121 ISAT 1 43879U 18111D 22223.70053236 .00002080 00000-0 17961-3 0 9997 2 43879 97.6617 128.3103 0014010 127.4175 232.8325 14.98260917195928 UWE-4 1 43880U 18111E 22223.43120470 .00002533 00000-0 21688-3 0 9998 2 43880 97.6648 128.7798 0013451 128.1530 232.0907 14.98403307197932 Sparrow 1 43881U 18111F 22223.50945203 .00001541 00000-0 13329-3 0 9997 2 43881 97.6659 129.1062 0013020 125.6458 234.5979 14.98568189197955 Lume 1 1 43908U 18111AJ 22223.67949412 .00006975 00000-0 23261-3 0 9993 2 43908 97.1842 109.7631 0016504 232.8453 127.1282 15.31250695201842 FO-99 1 43937U 19003F 22223.32293779 .00008972 00000-0 29294-3 0 9997 2 43937 97.1272 254.5698 0018377 321.5710 38.4223 15.31815178198370 MYSat 1 1 44045U 18092F 22223.27751493 .00045636 00000-0 57174-3 0 9997 2 44045 51.6299 158.1594 0005655 320.7253 39.3328 15.59285133196418 AstroCast 0.2 1 44083U 19018F 22223.66131365 .00006729 00000-0 25018-3 0 9993 2 44083 97.3184 281.4977 0008330 293.1745 66.8616 15.27818748186915 AISTechSat 3 1 44103U 19018AB 22223.56563043 .00006223 00000-0 22799-3 0 9999 2 44103 97.3050 281.7392 0010251 304.0661 55.9605 15.28316558187065 AISat 1 1 44104U 19018AC 22223.68169552 .00004707 00000-0 13088-3 0 9996 2 44104 97.3951 307.0524 0049800 296.1641 63.4485 15.36111957188073 Prox-1 1 44339U 19036A 22223.32592628 .00002314 00000-0 47507-3 0 9996 2 44339 23.9992 207.0001 0011425 99.2172 260.9613 14.55306173166445 Oculus-ASR 1 44348U 19036K 22223.23954465 .00039734 -60399-5 33703-3 0 9999 2 44348 28.5009 172.4950 0222695 209.3672 149.4249 15.41716275172992 Armadillo 1 44352U 19036P 22222.86557022 .00552477 11657-3 91699-3 0 9992 2 44352 28.5166 73.8109 0068625 4.4039 355.7169 15.97220404173880 NO-104 1 44354U 19036R 22223.13234256 .00045833 -60109-5 36732-3 0 9995 2 44354 28.5249 157.6934 0212359 229.8258 128.3572 15.44889749173137 Move-IIb 1 44398U 19038N 22223.55793067 .00011106 00000-0 52167-3 0 9995 2 44398 97.6304 193.4542 0019476 300.9994 58.9328 15.19625149171409 SONATE 1 44400U 19038Q 22223.54698725 .00003986 00000-0 21573-3 0 9997 2 44400 97.6432 192.3224 0021847 305.6657 54.2537 15.15044196171272 BeeSat 9 1 44412U 19038AC 22223.45523865 .00006249 00000-0 31332-3 0 9991 2 44412 97.6387 193.1798 0018292 307.6300 52.3273 15.17567370171032 JAISAT-1 1 44419U 19038F 22223.48970081 .00005620 00000-0 27852-3 0 9991 2 44419 97.6388 194.0946 0017220 304.4930 55.4676 15.18040262171408 LightSail-2 1 44420U 19036AC 22223.16825488 .00059182 00000-0 65905-2 0 9998 2 44420 23.9999 131.1035 0016942 219.0180 140.9096 14.85562409165335 Taurus 1 1 44530U 19059C 22223.80319306 .00001228 00000-0 34812-3 0 9995 2 44530 98.5492 322.8587 0012188 315.9143 44.1098 14.47246967153854 Duchifat 3 1 44854U 19089C 22223.77801000 .00002697 00000-0 21119-3 0 9997 2 44854 36.9682 132.2845 0009629 311.4596 48.5346 15.01367095146256 OPS-SAT 1 44878U 19092F 22223.47796978 .00006681 00000-0 30544-3 0 9990 2 44878 97.4802 46.9849 0013136 143.0779 217.1363 15.20806460146554 TO-108 1 44881U 19093C 22223.68198102 .00000344 00000-0 50270-4 0 9992 2 44881 97.8913 302.0964 0015379 11.8917 348.2671 14.81780024142957 FloripaSat 1 1 44885U 19093G 22223.79834265 .00001202 00000-0 15313-3 0 9997 2 44885 97.8962 303.6432 0014737 17.9541 342.2235 14.83302472143050 RS-44 1 44909U 19096E 22223.38760384 .00000000 00000-0 -42886-4 0 9994 2 44909 82.5219 193.7799 0217069 191.0002 168.6313 12.79714206122538 BY70-2 1 45857U 20042B 22223.86153651 .00004433 00000-0 58739-3 0 9992 2 45857 97.9540 300.1915 0008804 300.8500 59.1990 14.80366162113656 UPMSat 2 1 46276U 20061E 22223.13800472 .00003144 00000-0 15555-3 0 9996 2 46276 97.3893 292.7175 0001740 44.5807 315.5567 15.18522766107170 AmicalSat 1 46287U 20061R 22223.77185589 .00003134 00000-0 18047-3 0 9991 2 46287 97.4438 292.1968 0004203 90.4017 269.7696 15.13131333106838 SALSAT 1 46495U 20068K 22223.49459554 .00001455 00000-0 10749-3 0 9999 2 46495 97.7316 164.8250 0018387 91.0648 269.2685 15.04699901102469 BY70-3 1 46839U 20079N 22223.76903541 .00023257 00000-0 51029-3 0 9993 2 46839 97.1956 295.2090 0006778 125.6838 22.9781 15.44035472 98772 CAPE 3 1 47309U 21002A 22223.28788945 .00008632 00000-0 34375-3 0 9994 2 47309 60.6835 158.1610 0030583 16.8719 343.3379 15.25568929 86813 AO-109 1 47311U 21002C 22223.38832727 .00006772 00000-0 26951-3 0 9990 2 47311 60.6854 155.3360 0026432 17.9444 342.2571 15.26004894 86845 MiTEE 1 1 47314U 21002F 22223.31774540 .00015416 00000-0 50460-3 0 9991 2 47314 60.6826 147.3749 0023554 10.9926 349.1674 15.31664372 86994 ExoCube 2 1 47319U 21002L 22223.33737830 .00007023 00000-0 28252-3 0 9998 2 47319 60.6843 156.7175 0027933 19.1026 341.1102 15.25556900 86787 UVSQ-SAT 1 47438U 21006AB 22223.65975089 .00004320 00000-0 22649-3 0 9990 2 47438 97.4338 281.5439 0013391 85.5041 274.7722 15.16217787 85643 YUSAT 1 1 47439U 21006AC 22223.34858417 .00004829 00000-0 24902-3 0 9990 2 47439 97.4347 281.3784 0013193 86.5897 273.6845 15.16744149 85602 SOMP 2b 1 47445U 21006AJ 22223.67023609 .00003806 00000-0 20198-3 0 9997 2 47445 97.4310 281.1728 0013143 89.3139 270.9600 15.15863969 85633 IDEASSat 1 47458U 21006AX 22223.45997830 .00004071 00000-0 21687-3 0 9992 2 47458 97.4400 281.5143 0012288 88.5248 271.7392 15.15699347 85592 CubeSX-Sirius-HSE 1 47951U 21022V 22223.78618856 .00003520 00000-0 23304-3 0 9998 2 47951 97.5245 122.1431 0019862 320.6015 125.6321 15.07824654 76338 CubeSX-HSE 1 47952U 21022W 22223.77105228 .00003136 00000-0 20775-3 0 9994 2 47952 97.5248 122.1520 0019959 321.4842 122.8772 15.07877931 76330 KSU-Cubesat 1 47954U 21022Y 22223.71076636 .00003013 00000-0 19839-3 0 9993 2 47954 97.5254 122.2162 0019211 320.7281 39.2552 15.08144541 76053 GRBAlpha 1 47959U 21022AD 22223.76870574 .00003068 00000-0 20319-3 0 9991 2 47959 97.5249 122.1916 0019920 321.6334 125.0427 15.07903958 75153 Orbicraft-Zorkiy 1 47960U 21022AE 22223.80490826 .00004191 00000-0 27475-3 0 9994 2 47960 97.5272 122.3840 0019848 320.5323 130.6529 15.08076598 75858 STECCO 1 47962U 21022AG 22223.74793019 .00005353 00000-0 33051-3 0 9997 2 47962 97.5224 123.1461 0014722 315.6484 137.2202 15.10224092 75212 DO-111 1 47963U 21022AH 22223.65818377 .00011433 00000-0 61578-3 0 9994 2 47963 97.5270 124.4175 0014559 307.4658 52.5249 15.14889170 75308 MO-110 1 47964U 21022AJ 22223.69502462 .00004251 00000-0 26027-3 0 9994 2 47964 97.5244 123.3861 0016821 310.6354 49.3413 15.10620092 75223 FEES 1 48082U 21022AL 22223.67010474 .00007205 00000-0 43019-3 0 9993 2 48082 97.5256 123.3319 0012965 308.2842 51.7221 15.11347767 74922 RamSat 1 48850U 98067SL 22223.49699573 .00097012 00000-0 52670-3 0 9990 2 48850 51.6357 34.7346 0003462 269.9090 90.1515 15.79223804 66005 TUBIN 1 48900U 21059X 22223.83451228 .00003368 00000-0 18772-3 0 9990 2 48900 97.5593 352.7225 0008521 274.5276 244.6520 15.14254401 62295 IT-SPINS 1 49017U 21013G 22223.36014891 .00007447 00000-0 28591-3 0 9991 2 49017 51.5991 136.7346 0007480 274.5233 85.4891 15.27431068 62176 LEDSAT 1 49069U 21073D 22223.75786012 .00003368 00000-0 21498-3 0 9995 2 49069 97.5218 295.5569 0028375 104.6980 255.7397 15.09025870 54178 CUTE 1 49263U 21088D 22223.70925743 .00002538 00000-0 19034-3 0 9999 2 49263 97.5870 290.5311 0018241 231.5285 128.4304 15.03436978 47723 Binar-1 1 49272U 98067SR 22223.74479266 .00136764 00000-0 67807-3 0 9998 2 49272 51.6306 37.0844 0003138 229.8722 130.2005 15.81067328 48385 CUAVA-1 1 49275U 98067SU 22223.78142556 .00403615 77211-4 93903-3 0 9994 2 49275 51.6276 30.9538 0007608 278.0640 210.3902 15.96466111 48416 TeikyoSat 4 1 49396U 21102B 22223.70123089 .00001178 00000-0 97233-4 0 9993 2 49396 97.5251 280.0088 0017748 66.6736 293.6353 15.00727879 41337 Z-Sat 1 49399U 21102E 22223.76842392 .00001568 00000-0 12123-3 0 9994 2 49399 97.5345 281.0273 0023470 45.1909 315.1219 15.02723086 41399 KOSEN 1 1 49402U 21102H 22223.72477416 .00001503 00000-0 11316-3 0 9998 2 49402 97.5249 281.1438 0022923 35.7548 324.5207 15.03800868 41416 HO-113 1 50466U 21131B 22223.74775017 .00000067 00000-0 36496-4 0 9993 2 50466 98.5790 300.9718 0004134 0.9374 359.1820 14.38514077 32861 Tevel 1 50999U 22002R 22223.66834793 .00005770 00000-0 30790-3 0 9996 2 50999 97.4778 289.8635 0009740 221.2462 265.9198 15.15496260 31784 Grizu-263a 1 51025U 22002AT 22223.66941314 .00009626 00000-0 47711-3 0 9990 2 51025 97.4951 290.7438 0011590 225.8704 134.1578 15.17898124 31815 NO-116 1 51031U 22002AZ 22223.41331479 .00007093 00000-0 36505-3 0 9990 2 51031 97.4905 290.1943 0011850 227.7178 132.3051 15.16673993 31765 IRIS-A 1 51044U 22002BN 22223.47018906 .00003384 00000-0 19089-3 0 9994 2 51044 97.4794 289.3599 0008027 227.4989 132.5565 15.13814801 31732 DELFI-PQ 1 51074U 22002CU 22223.74367957 .00007574 00000-0 37215-3 0 9996 2 51074 97.5034 291.3277 0012017 259.6520 100.3359 15.18274345 31845 SO-115 1 51080U 22002DA 22223.15576954 .00005521 00000-0 28058-3 0 9992 2 51080 97.5048 290.6157 0011831 262.7940 97.1948 15.17225401 31744 SO-114 1 51081U 22002DB 22223.15621363 .00005342 00000-0 27152-3 0 9993 2 51081 97.5040 290.5927 0012127 262.5279 97.4577 15.17229061 31740 OreSat0 1 52017U 22026K 22223.76399486 .00004939 00000-0 26102-3 0 9999 2 52017 97.5033 222.9191 0028882 83.6322 276.8198 15.15587686 22560 Planetum 1 1 52738U 22057G 22223.77176900 .00003413 00000-0 20033-3 0 9991 2 52738 97.5174 337.5425 0007828 352.4435 7.6676 15.12385747 11793 Foresail-1 1 52766U 22057AL 22223.79452385 .00003561 00000-0 20156-3 0 9998 2 52766 97.5263 337.8221 0012910 328.4401 162.2581 15.13621262 11805 SNUGLITE 2 1 52899U 22065F 22223.80171221 .00000409 00000-0 97877-4 0 9996 2 52899 98.0258 13.3012 0009587 101.2197 259.0100 14.58379346 5762 CTIM 1 52950U 22074G 22223.31834041 .00008895 00000-0 36930-3 0 9995 2 52950 45.0153 260.4500 0001567 53.1580 306.9571 15.24223090 6105 MTCube 2 1 53106U 22080B 22223.01180688 -.00000003 00000-0 00000-0 0 9994 2 53106 70.1453 67.4901 0008382 251.9920 107.9681 6.42558231 1822 AstroBioCubeSat 1 53107U 22080C 22222.25281893 -.00000003 00000-0 00000 0 0 9999 2 53107 70.1518 67.7797 0013111 244.5168 115.4181 6.42110748 1678 GREENCUBE 1 53109U 22080E 22222.54375425 -.00000003 00000-0 00000-0 0 9999 2 53109 70.1381 67.4557 0009291 237.9543 122.0221 6.42583739 1680 CELESTA 1 53111U 22080G 22209.16019017 -.00000003 00000-0 00000-0 0 9997 2 53111 70.1517 72.3224 0015664 220.2144 139.7964 6.42532870 816 RS4S 1 53306U 98067TR 22223.75233730 .00034129 00000-0 57459-3 0 9990 2 53306 51.6418 61.2388 0003391 115.6589 244.4751 15.51379168 3289 RS3S 1 53308U 98067TT 22223.81622215 .00033502 00000-0 56367-3 0 9990 2 53308 51.6416 60.9153 0003109 108.4223 251.7105 15.51407232 3353 RS1S 1 53309U 98067TU 22223.75139270 .00033157 00000-0 55717-3 0 9992 2 53309 51.6415 61.2317 0003772 121.2502 238.8857 15.51445475 3292 RS5S 1 53310U 98067TV 22223.81577207 .00032978 00000-0 55468-3 0 9990 2 53310 51.6419 60.9124 0003441 122.6745 237.4577 15.51423362 3337 RS6S 1 53311U 98067TW 22223.81493547 .00035824 00000-0 59911-3 0 9995 2 53311 51.6412 60.9061 0002843 102.7429 257.3879 15.51544647 3352 RS9S 1 53312U 98067TX 22223.75068044 .00033210 00000-0 55704-3 0 9992 2 53312 51.6417 61.2268 0003974 123.6637 236.4732 15.51495820 3286 RS12S 1 53313U 98067TY 22223.81453037 .00034390 00000-0 57542-3 0 9992 2 53313 51.6417 60.9038 0003489 127.9905 232.1401 15.51548040 3340 /EX